カタログに戻る

STARLINK-35249

運用中通信VLEO
NORAD 65901·PAYLOAD·🇺🇸 United States

打ち上げ Oct 7, 2025 から Cape Canaveral Space Force Station

Loading…

次のパス (今後24時間)

TLE

最新Source: CelesTrak SupGP

元期: Sep 14, 2026, 15:22 UTC

1 65901C 25224V   26257.64076389  .00014642  00000+0  43273-3 0  2576
2 65901  53.1589 213.1824 0001441  89.2385 161.8360 15.34372568    10

AllMySatでSTARLINK-35249をリアルタイム追跡

Download on the App Store